Content
SEND FEEDBACK

Daily
Averages
Monthly
Summary
Philippines

MANILA, PHILIPPINES


Home > Asia > Philippines
Elevation: 49 feet     Latitude: 14 31N     Longitude: 121 00E

WEATHER
 
SELECT A DAY
Number of Records: 177,332;   Date Range: 7/1/96 - 10/30/14
 
SHARE

PRINT THIS DATA

[ ← Previous Day ]
WEATHER ALMANAC - JULY 8, 2013
[ Next Day → ]
[ °C ]   °F
We're sorry. There is no daily almanac available for Manila, Philippines on July 8, 2013.
WEATHER BY HOUR - JULY 8, 2013
[ °C ]   °F
Local TimeTemperatureDewpointHumidityBarometerVisibilityWind DirectionWind SpeedGust SpeedPrecipitationEventsConditions
1:00 AM80.6 °F73.4 °F79 %29.89 in6.2 miVariable1.2 mphScattered Clouds
2:00 AM80.0 °F74.0 °F76 %29.87 in6.0 miCalmHaze
2:00 AM80.6 °F73.4 °F79 %29.86 in6.2 miCalmMostly Cloudy
3:00 AM80.6 °F73.4 °F79 %29.86 in6.2 miCalmMostly Cloudy
4:00 AM80.6 °F73.4 °F79 %29.83 in6.2 miVariable2.3 mphScattered Clouds
5:00 AM79.0 °F74.0 °F80 %29.86 in6.0 miSouth (170°)2.2 mphHaze
5:00 AM78.8 °F73.4 °F83 %29.86 in6.2 miVariable2.3 mphScattered Clouds
6:00 AM78.8 °F73.4 °F83 %29.86 in6.2 miVariable2.3 mphScattered Clouds
7:00 AM82.4 °F73.4 °F74 %29.86 in6.2 miENE (60°)4.6 mphPartly Cloudy
8:00 AM85.0 °F74.0 °F62 %29.89 in6.0 miNNE (30°)2.2 mphHaze
8:00 AM86.0 °F73.4 °F66 %29.89 in6.2 miVariable2.3 mphPartly Cloudy
9:00 AM87.8 °F71.6 °F58 %29.89 in6.2 miENE (70°)4.6 mphPartly Cloudy
10:00 AM86.0 °F73.4 °F66 %29.89 in6.2 miVariable2.3 mphMostly Cloudy
11:00 AM87.0 °F73.0 °F54 %29.88 in6.0 miEast (90°)4.5 mphHaze
11:00 AM86.0 °F73.4 °F66 %29.89 in6.2 miVariable3.5 mphMostly Cloudy
12:00 PM87.8 °F75.2 °F66 %29.86 in6.2 miVariable5.8 mphPartly Cloudy
1:00 PM91.4 °F73.4 °F55 %29.83 in6.2 miVariable8.1 mphPartly Cloudy
2:00 PM91.0 °F73.0 °F47 %29.81 in6.0 miSE (130°)11.2 mph
2:00 PM91.4 °F75.2 °F59 %29.80 in6.2 miSE (130°)10.4 mphPartly Cloudy
3:00 PM91.4 °F75.2 °F59 %29.77 in6.2 miSE (130°)9.2 mphPartly Cloudy
4:00 PM89.6 °F75.2 °F62 %29.77 in6.2 miSE (130°)11.5 mphScattered Clouds
5:00 PM88.0 °F74.0 °F55 %29.77 in6.0 miESE (120°)8.9 mphHaze
5:00 PM87.8 °F73.4 °F62 %29.77 in6.2 miESE (120°)10.4 mphScattered Clouds
6:00 PM87.8 °F73.4 °F62 %29.77 in6.2 miSE (130°)10.4 mphMostly Cloudy
7:00 PM86.0 °F75.2 °F70 %29.80 in6.2 miSE (130°)6.9 mphScattered Clouds
8:00 PM85.0 °F74.0 °F62 %29.83 in6.0 miESE (120°)6.7 mphPartly Cloudy
8:00 PM86.0 °F73.4 °F66 %29.83 in6.2 miESE (120°)8.1 mphScattered Clouds
9:00 PM84.2 °F73.4 °F70 %29.83 in6.2 miESE (120°)5.8 mphScattered Clouds
10:00 PM84.2 °F73.4 °F70 %29.86 in6.2 miSE (140°)3.5 mphPartly Cloudy
11:00 PM82.0 °F74.0 °F71 %29.86 in6.0 miEast (90°)2.2 mphHaze
11:00 PM82.4 °F73.4 °F74 %29.83 in6.2 miVariable2.3 mphPartly Cloudy
Hourly data recorded from RPLL, located miles away from Manila, Philippines







STORIES FROM OUR PARTNERS